Back to catalog

AFRICASAT 1

MEASAT 1

AliveCommunicationsGEO
NORAD 23765·PAYLOAD·🇲🇾 Malaysia

Launched Jan 12, 1996 from Guiana Space Centre

Loading…

TLE

FreshSource: Space-Track

Epoch: Sep 14, 2026, 01:52 UTC

1 23765U 96002B   26257.07834343 -.00000135  00000-0  00000-0 0  9994
2 23765  12.5642  28.6093 0003043 308.6864  54.8165  0.99064384111733

Track AFRICASAT 1 in real time with AllMySat

Download on the App Store